[[{"header":{"parameterUnit":"m.s-1","parameterCategory":1,"la1":30.2991,"la2":30.254,"lo1":-89.0895,"lo2":-89.0444,"dy":0.0017,"dx":0.0017,"nx":28,"ny":28,"refTime":"2024-09-26T03:00:00:Z","depth":0,"parameterNumber":2,"parameterNumberName":"U-component_of_WINDS"},"data":[0,0,0,0,0,0,0,0,0,0,0,0,0,0,0,0,0,0,0,0,0,0,0,0,0,0,0,0,0,0,0,0,0,0,0,0,0,0,0,0,0,0,0,0,0,0,0,0,0,0,0,0,0,0,0,0,0,0,-3.1908,-3.1909,0,-3.2064,-3.2066,-3.2068,-3.2022,-3.2019,-3.2016,-3.2013,-3.2178,-3.2185,-3.2192,0,0,0,0,0,0,0,0,0,0,0,0,0,-3.1574,-3.1581,-3.1908,-3.191,-3.1912,-3.2064,-3.2066,-3.2068,-3.2023,-3.2019,-3.2015,-3.2011,-3.2175,-3.2184,-3.2193,0,0,0,0,0,0,0,0,0,0,0,0,0,-3.1724,-3.1583,-3.1907,-3.1907,-3.1909,-3.2064,-3.2066,-3.2069,-3.2024,-3.2019,-3.2014,-3.2009,-3.2172,-3.2183,-3.2194,-3.236,0,0,-3.2228,-3.2233,0,0,0,0,0,0,0,0,-3.1716,-3.1736,-3.1905,-3.1907,-3.1909,-3.2019,-3.2009,-3.2167,-3.2025,-3.198,-3.2013,-3.2007,-3.2129,-3.2143,-3.2184,-3.2368,-3.2375,-3.2229,-3.2236,-3.2241,-3.2244,0,0,0,0,0,0,0,-3.1705,-3.1729,-3.197,-3.1908,-3.191,-3.1901,-3.1917,-3.2039,-3.208,-3.1984,-3.1981,-3.2,-3.2129,-3.2173,-3.2187,-3.2378,-3.2229,-3.2239,-3.2246,-3.225,-3.2708,-3.2713,0,0,0,0,0,0,-3.1693,-3.1721,-3.1965,-3.1974,-3.1798,-3.1911,-3.1929,-3.1989,-3.2079,-3.2088,-3.2004,-3.1997,-3.2156,-3.2174,-3.2193,-3.2395,-3.2241,-3.2251,-3.2258,-3.2703,-3.2709,-3.2715,0,0,0,0,0,0,-3.1686,-3.1715,-3.1958,-3.1847,-3.1877,-3.1922,-3.199,-3.1994,-3.2038,-3.2094,-3.2101,-3.204,-3.2153,-3.2177,-3.2319,-3.24,-3.2256,-3.2266,-3.2696,-3.2705,-3.2712,-3.2799,0,0,0,0,0,0,-3.1676,-3.1713,-3.1775,-3.1849,-3.1883,-3.2081,-3.1994,-3.2001,-3.2057,-3.2049,-3.213,-3.2139,-3.2151,-3.2303,-3.233,-3.2413,-3.2275,-3.2689,-3.27,-3.271,-3.2789,-3.2809,-3.2826,0,0,0,0,0,-3.1665,-3.1794,-3.1778,-3.1808,-3.1962,-3.2085,-3.2106,-3.2116,-3.2063,-3.2127,-3.2163,-3.2136,-3.2386,-3.2318,-3.2348,-3.2435,-3.2684,-3.2697,-3.2709,-3.2781,-3.2805,-3.2826,0,0,0,0,0,0,-3.173,-3.1803,-3.1787,-3.1944,-3.2009,-3.2077,-3.2158,-3.2141,-3.2223,-3.2213,-3.2224,-3.2243,-3.2388,-3.2426,-3.2348,-3.2602,-3.2528,-3.2547,-3.2572,-3.2596,-3.2614,-3.2603,-3.2284,0,0,0,0,0,-3.1762,-3.1855,-3.1915,-3.2047,-3.208,-3.2114,-3.2168,-3.217,-3.2239,-3.2266,-3.2313,-3.2381,-3.2475,-3.2537,-3.2627,-3.2794,-3.2812,-3.2869,-3.2887,-3.2902,-3.2919,-3.3012,-3.3039,-3.2756,-3.2756,-3.2756,0,0,-3.1831,-3.1882,-3.194,-3.2061,-3.2112,-3.221,-3.2137,-3.2243,-3.2316,-3.2283,-3.242,-3.2456,-3.2534,-3.2689,-3.276,-3.2725,-3.3001,-3.2918,-3.2929,-3.2938,-3.3028,-3.3054,-3.3078,-3.2764,-3.2763,-3.2762,0,0,-3.2005,-3.2052,-3.2169,-3.2221,-3.2298,-3.2319,-3.2347,-3.2419,-3.2442,-3.2579,-3.2556,-3.2644,-3.2805,-3.2862,-3.2912,-3.3109,-3.3088,-3.3138,-3.3235,-3.3326,-3.3348,-3.3368,-3.344,-3.3466,-3.3154,-3.3154,-3.3155,0,-3.2081,-3.2225,-3.2231,-3.2339,-3.2394,-3.2367,-3.2486,-3.2536,-3.264,-3.2679,-3.2637,-3.284,-3.289,-3.306,-3.3108,-3.3148,-3.3182,-3.3129,-3.3344,-3.3364,-3.3383,-3.3452,-3.3479,-3.316,-3.3159,-3.3159,-3.3158,0,-3.2315,-3.2416,-3.2501,-3.26,-3.2664,-3.2777,-3.2802,-3.2867,-3.2864,-3.289,-3.3032,-3.3091,-3.3192,-3.3232,-3.3231,-3.3403,-3.3378,-3.3341,-3.3267,-3.3415,-3.3481,-3.3507,-3.3168,-3.3166,-3.3164,-3.3163,0,0,-3.2536,-3.2636,-3.2668,-3.2713,-3.2796,-3.2875,-3.2988,-3.3086,-3.3142,-3.3214,-3.331,-3.3448,-3.3414,-3.347,-3.3475,-3.3554,-3.3709,-3.3507,-3.3509,-3.3544,-3.3904,-3.3933,-3.3963,-3.3695,-3.37,-3.3704,-3.3898,0,-3.2719,-3.2915,-3.2924,-3.3104,-3.3198,-3.3174,-3.3272,-3.3335,-3.3363,-3.3449,-3.348,-3.3578,-3.3524,-3.3559,-3.3636,-3.3673,-3.3781,-3.3659,-3.3787,-3.3791,-3.3769,-3.3997,-3.4028,-3.4208,-3.3923,-3.3928,-3.3931,0,-3.2958,-3.3037,-3.3226,-3.3296,-3.3336,-3.3424,-3.3516,-3.3597,-3.3669,-3.3683,-3.3747,-3.3741,-3.3858,-3.3779,-3.3943,-3.386,-3.3912,-3.3939,-3.3946,-3.396,-3.3871,-3.4019,-3.4266,-3.4294,-3.3971,-3.3967,-3.3964,0,-3.3102,-3.3255,-3.3388,-3.3428,-3.3513,-3.3576,-3.3615,-3.3681,-3.374,-3.382,-3.3859,-3.3953,-3.4005,-3.4078,-3.4098,-3.4038,-3.4262,-3.4184,-3.4279,-3.4279,-3.4329,-3.4326,-3.459,-3.436,-3.436,-3.4359,-3.4359,0,-3.3306,-3.3423,-3.3454,-3.3536,-3.3667,-3.3677,-3.3807,-3.3842,-3.3902,-3.3992,-3.3977,-3.4062,-3.4081,-3.4171,-3.4187,-3.4322,-3.4345,-3.4362,-3.4365,-3.4364,-3.4362,-3.44,-3.4388,-3.4366,-3.4365,-3.4363,-3.4362,0,-3.349,-3.3515,-3.3659,-3.3728,-3.3748,-3.3842,-3.3902,-3.3982,-3.4007,-3.4122,-3.4149,-3.4191,-3.4296,-3.4322,-3.4447,-3.4458,-3.4617,-3.4608,-3.4593,-3.4593,-3.4687,-3.4679,-3.4986,-3.5028,-3.4769,-3.4772,-3.4774,0,-3.3619,-3.3709,-3.3787,-3.3845,-3.3887,-3.3981,-3.4041,-3.4055,-3.4118,-3.4207,-3.4277,-3.4379,-3.4462,-3.4631,-3.4674,-3.477,-3.4764,-3.4865,-3.4779,-3.4775,-3.4768,-3.4763,-3.4773,-3.4882,-3.4885,-3.4887,-3.4889,0,-3.3847,-3.3855,-3.394,-3.4032,-3.4103,-3.4176,-3.4245,-3.4294,-3.4318,-3.439,-3.4497,-3.4561,-3.4689,-3.4792,-3.4889,-3.4931,-3.4916,-3.4916,-3.4943,-3.4944,-3.4932,-3.4942,-3.464,-3.4909,-3.4907,-3.4906,-3.4904,-3.4904,-3.4008,-3.4087,-3.4155,-3.4251,-3.4305,-3.437,-3.4449,-3.4485,-3.4573,-3.4677,-3.468,-3.4797,-3.4868,-3.4996,-3.5044,-3.5136,-3.5106,-3.5145,-3.5156,-3.5166,-3.5175,-3.4916,-3.5154,-3.5153,-3.5153,-3.5153,-3.5152,0,-3.4236,-3.4278,-3.4367,-3.4464,-3.4541,-3.4517,-3.4593,-3.466,-3.4762,-3.4828,-3.491,-3.5033,-3.5133,-3.5184,-3.5284,-3.5348,-3.5344,-3.5374,-3.5371,-3.5381,-3.5195,-3.5162,-3.5376,-3.5376,-3.5376,-3.5376,-3.5376,-3.5376,-3.4364,-3.4496,-3.4513,-3.4672,-3.4714,-3.4827,-3.4873,-3.4934,-3.4987,-3.5125,-3.5207,-3.5239,-3.53,-3.5404,-3.5496,-3.5508,-3.5547,-3.5581,-3.5591,-3.5417,-3.5394,-3.5372,-3.5341,-3.5589,-3.559,-3.5769,-3.577,-3.5771]},{"header":{"parameterUnit":"m.s-1","parameterCategory":1,"la1":30.2991,"la2":30.254,"lo1":-89.0895,"lo2":-89.0444,"dy":0.0017,"dx":0.0017,"nx":28,"ny":28,"refTime":"2024-09-26T03:00:00:Z","depth":0,"parameterNumber":3,"parameterNumberName":"V-component_of_WINDS"},"data":[0,0,0,0,0,0,0,0,0,0,0,0,0,0,0,0,0,0,0,0,0,0,0,0,0,0,0,0,0,0,0,0,0,0,0,0,0,0,0,0,0,0,0,0,0,0,0,0,0,0,0,0,0,0,0,0,0,0,-6.7378,-6.7378,0,-6.738,-6.738,-6.738,-6.7243,-6.724,-6.7236,-6.7233,-6.7235,-6.7238,-6.7241,0,0,0,0,0,0,0,0,0,0,0,0,0,-6.7252,-6.7255,-6.7378,-6.7378,-6.7378,-6.738,-6.738,-6.738,-6.7244,-6.724,-6.7235,-6.7231,-6.7233,-6.7237,-6.7242,0,0,0,0,0,0,0,0,0,0,0,0,0,-6.7286,-6.7256,-6.7378,-6.731,-6.7304,-6.738,-6.738,-6.738,-6.7245,-6.724,-6.7234,-6.7229,-6.7232,-6.7237,-6.7242,-6.7383,0,0,-6.7258,-6.726,0,0,0,0,0,0,0,0,-6.7284,-6.7291,-6.732,-6.7315,-6.7308,-6.7306,-6.7337,-6.7381,-6.7246,-6.7268,-6.7233,-6.7226,-6.7263,-6.7265,-6.7277,-6.7383,-6.7383,-6.7258,-6.7261,-6.7264,-6.7265,0,0,0,0,0,0,0,-6.7282,-6.729,-6.7378,-6.7321,-6.7313,-6.7279,-6.7278,-6.7344,-6.7296,-6.7265,-6.7255,-6.7258,-6.7258,-6.7273,-6.7276,-6.7383,-6.7258,-6.7263,-6.7266,-6.7268,-6.7602,-6.7608,0,0,0,0,0,0,-6.7289,-6.7289,-6.7378,-6.7379,-6.7283,-6.7286,-6.7284,-6.7312,-6.7294,-6.7286,-6.7262,-6.7251,-6.7267,-6.7271,-6.7276,-6.7438,-6.7264,-6.7268,-6.7271,-6.7596,-6.7603,-6.761,0,0,0,0,0,0,-6.7287,-6.7299,-6.7378,-6.7331,-6.7339,-6.7294,-6.7326,-6.7315,-6.7329,-6.7292,-6.7282,-6.7286,-6.7262,-6.7269,-6.7357,-6.7436,-6.7271,-6.7275,-6.759,-6.7599,-6.7607,-6.7765,0,0,0,0,0,0,-6.7284,-6.7299,-6.7352,-6.7333,-6.7342,-6.746,-6.7331,-6.7319,-6.7339,-6.7324,-6.7312,-6.7305,-6.7259,-6.735,-6.7362,-6.744,-6.7279,-6.7582,-6.7594,-6.7604,-6.7752,-6.7778,-6.78,0,0,0,0,0,-6.728,-6.7397,-6.7356,-6.7367,-6.7408,-6.7465,-6.747,-6.7415,-6.7346,-6.7398,-6.7374,-6.7305,-6.7426,-6.736,-6.7373,-6.7454,-6.7577,-6.759,-6.7603,-6.7742,-6.7773,-6.7799,0,0,0,0,0,0,-6.7426,-6.7393,-6.7347,-6.7461,-6.7467,-6.7442,-6.7507,-6.745,-6.7475,-6.7461,-6.7391,-6.739,-6.7489,-6.748,-6.7407,-6.7588,-6.7489,-6.7505,-6.759,-6.762,-6.7643,-6.7643,-6.7284,0,0,0,0,0,-6.7472,-6.7522,-6.749,-6.7594,-6.7599,-6.7553,-6.7576,-6.7533,-6.7536,-6.7538,-6.752,-6.7526,-6.7564,-6.7591,-6.7625,-6.7751,-6.7745,-6.7812,-6.7836,-6.7856,-6.787,-6.7935,-6.7964,-6.7653,-6.7652,-6.7652,0,0,-6.7567,-6.7555,-6.759,-6.7623,-6.7622,-6.7675,-6.7556,-6.7617,-6.7655,-6.7547,-6.7629,-6.7617,-6.7618,-6.7725,-6.7771,-6.772,-6.7955,-6.7872,-6.7888,-6.7892,-6.7951,-6.7981,-6.8007,-6.7661,-6.766,-6.7658,0,0,-6.7765,-6.7762,-6.7847,-6.7849,-6.785,-6.7818,-6.7839,-6.7822,-6.781,-6.7891,-6.7811,-6.7855,-6.7924,-6.7927,-6.7938,-6.8138,-6.8075,-6.8151,-6.8275,-6.8338,-6.8363,-6.8384,-6.8455,-6.8481,-6.8166,-6.8166,-6.8166,0,-6.7883,-6.7959,-6.7898,-6.7964,-6.798,-6.7885,-6.797,-6.7975,-6.7987,-6.8,-6.7943,-6.8027,-6.8021,-6.8127,-6.8176,-6.8188,-6.8209,-6.8152,-6.8364,-6.8385,-6.8404,-6.847,-6.8497,-6.8175,-6.8174,-6.8173,-6.8172,0,-6.8103,-6.8157,-6.8226,-6.8239,-6.8263,-6.8339,-6.8289,-6.832,-6.8275,-6.8249,-6.8333,-6.8322,-6.8352,-6.8374,-6.8331,-6.8474,-6.8442,-6.8377,-6.8275,-6.8444,-6.8505,-6.853,-6.8189,-6.8185,-6.8182,-6.818,0,0,-6.8394,-6.8372,-6.8399,-6.8403,-6.8396,-6.8437,-6.8507,-6.8536,-6.8564,-6.8575,-6.8632,-6.8692,-6.8631,-6.8643,-6.86,-6.8656,-6.8813,-6.8582,-6.8581,-6.8625,-6.8969,-6.9019,-6.9049,-6.8772,-6.8776,-6.878,-6.8969,0,-6.8586,-6.8706,-6.8653,-6.8778,-6.8826,-6.8736,-6.8797,-6.88,-6.8777,-6.8815,-6.879,-6.8833,-6.8749,-6.8756,-6.8808,-6.8784,-6.8881,-6.8769,-6.8823,-6.8826,-6.8825,-6.9081,-6.9134,-6.9313,-6.8993,-6.8997,-6.8999,0,-6.8826,-6.8847,-6.8977,-6.896,-6.8979,-6.9035,-6.9056,-6.9094,-6.9094,-6.9074,-6.9088,-6.9031,-6.9098,-6.8999,-6.909,-6.9015,-6.9034,-6.9025,-6.9031,-6.9033,-6.8923,-6.909,-6.9369,-6.9395,-6.9037,-6.9034,-6.9031,0,-6.9025,-6.9085,-6.917,-6.9177,-6.916,-6.9201,-6.9196,-6.9191,-6.9211,-6.923,-6.9243,-6.927,-6.9284,-6.9306,-6.9258,-6.919,-6.9356,-6.9252,-6.934,-6.9342,-6.9379,-6.9377,-6.9664,-6.9393,-6.9392,-6.9392,-6.9391,0,-6.9244,-6.9327,-6.9259,-6.9311,-6.9401,-6.9339,-6.9429,-6.9414,-6.941,-6.9457,-6.9381,-6.9427,-6.9361,-6.94,-6.9363,-6.9444,-6.9451,-6.9436,-6.9425,-6.9443,-6.9445,-6.9454,-6.944,-6.9399,-6.9397,-6.9396,-6.9395,0,-6.9481,-6.9439,-6.9525,-6.9502,-6.9498,-6.9565,-6.9544,-6.9591,-6.9564,-6.9624,-6.9635,-6.9592,-6.9634,-6.9588,-6.9627,-6.9602,-6.9711,-6.9682,-6.9711,-6.9703,-6.9793,-6.9785,-7.0095,-7.0132,-6.9839,-6.9842,-6.9844,0,-6.9623,-6.9685,-6.9668,-6.9694,-6.9693,-6.9737,-6.9757,-6.9698,-6.9722,-6.9726,-6.9773,-6.9809,-6.9834,-6.9906,-6.9878,-6.9907,-6.9878,-6.9984,-6.9882,-6.9897,-6.9878,-6.9875,-6.988,-7.0005,-7.0009,-7.0012,-7.0014,0,-6.9881,-6.9856,-6.9889,-6.9914,-6.994,-6.9957,-6.9968,-6.9994,-6.9932,-6.9963,-7.0005,-7.0025,-7.0065,-7.0101,-7.0122,-7.0116,-7.0055,-7.0047,-7.0068,-7.0087,-7.01,-7.0093,-6.9767,-7.004,-7.0037,-7.0035,-7.0034,-7.0033,-7.0074,-7.0124,-7.0119,-7.0157,-7.0159,-7.0171,-7.0214,-7.0191,-7.0225,-7.0253,-7.0216,-7.0268,-7.0265,-7.0287,-7.0288,-7.0328,-7.0282,-7.0314,-7.0322,-7.0331,-7.0344,-7.0095,-7.0332,-7.0331,-7.033,-7.033,-7.0329,0,-7.0326,-7.0319,-7.0354,-7.0372,-7.0402,-7.0341,-7.035,-7.0379,-7.0426,-7.0429,-7.0455,-7.0503,-7.0538,-7.0513,-7.0542,-7.0578,-7.0551,-7.0588,-7.0584,-7.0584,-7.0383,-7.0361,-7.0609,-7.0609,-7.0609,-7.0609,-7.0609,-7.0609,-7.0461,-7.0542,-7.0517,-7.0598,-7.0589,-7.0639,-7.0649,-7.066,-7.0661,-7.0719,-7.0747,-7.073,-7.0721,-7.0749,-7.0778,-7.0769,-7.0783,-7.083,-7.0812,-7.0625,-7.0598,-7.0571,-7.055,-7.0834,-7.0834,-7.1008,-7.101,-7.1011]}]]